Regional Weather Roundup
Issued by NWS

Home | Current Version | Previous Version | Text Only | Print | Product List | Glossary Off
Versions: 1 2 3 4 5 6 7 8 9 10 11 12 13 14 15 16 17 18 19 20 21 22 23 24 25 26 27 28 29 30 31 32 33 34 35 36 37 38 39 40 41 42 43 44 45 46 47 48 49 50

000
ASUS45 KABQ 020001
RWRNM
WEATHER ROUNDUP FOR NEW MEXICO
NATIONAL WEATHER SERVICE ALBUQUERQUE NM
600 PM MDT FRI AUG 01 2014

NOTE: "FAIR" MEANS FEW OR NO CLOUDS BELOW 12,000 FEET AGL WITH NO
       SIGNIFICANT WEATHER OR OBSTRUCTIONS TO VISION.

      THIS PRODUCT IS RELEASED AS TWO VERSIONS.  ONE VERSION NEAR
      THE TOP OF THE HOUR CONTAINING PRELIMINARY DATA FROM ALBUQUERQUE
      AND OTHER STATIONS.  A FINAL VERSION WITH ADDITIONAL DATA IS
      ISSUED ABOUT 10 MINUTES AFTER THE HOUR.

NMZ501-503-504-510>518-020100-
NORTHWEST PLATEAU/NORTHCENTRAL MOUNTAINS

CITY           SKY/WX    TMP DP  RH WIND       PRES   REMARKS
FARMINGTON     MOSUNNY   82  44  26 N24G31    30.12S
6HR MIN TEMP:  76; 6HR MAX TEMP:  88;

SANTA FE       PTSUNNY   71  54  54 SE16      30.26F
6HR MIN TEMP:  67; 6HR MAX TEMP:  74; 6HR PCP:  0.03;

TAOS           MOSUNNY   70  48  46 CALM      30.32R
ANGEL FIRE     CLOUDY    60  53  78 S5        30.42S

$$
NMZ402-403-502-505>509-020100-
WESTCENTRAL MOUNTAINS/SOUTHWEST MOUNTAINS

CITY           SKY/WX    TMP DP  RH WIND       PRES   REMARKS
GALLUP         MOSUNNY   78  50  37 S8        30.21F
6HR MIN TEMP:  74; 6HR MAX TEMP:  83; 6HR PCP: TRACE;


$$
NMZ407-409-411-412-020100-
SOUTHERN DESERTS

CITY           SKY/WX    TMP DP  RH WIND       PRES   REMARKS
LORDSBURG      FAIR      79  59  50 SE7       30.07F
DEMING         MOSUNNY   80  61  52 E7        30.10F
6HR MIN TEMP:  72; 6HR MAX TEMP:  80;

HOLLOMAN AFB   PTSUNNY   72  68  88 E7        30.12F
T OR C         MOSUNNY   80  55  42 E6        30.12F
6HR MIN TEMP:  72; 6HR MAX TEMP:  82;


$$
NMZ519>523-020100-
CENTRAL VALLEYS/CENTRAL HIGHLANDS

CITY           SKY/WX    TMP DP  RH WIND       PRES   REMARKS
ALBUQUERQUE    PTSUNNY   80  55  42 E13       30.17F
6HR MIN TEMP:  74; 6HR MAX TEMP:  81;

DOUBLE EAGLE   PTSUNNY   77  52  41 VRB6      30.21F
CLINES CORNERS CLOUDY    67  54  63 SE8       30.31S
6HR MIN TEMP:  64; 6HR MAX TEMP:  70;

BELEN          FAIR      80  54  40 SE9       30.16F
6HR MIN TEMP:  71; 6HR MAX TEMP:  81;

SOCORRO        NOT AVBL

$$
NMZ524>526-539-540-020100-
SOUTHCENTRAL MOUNTAINS

CITY           SKY/WX    TMP DP  RH WIND       PRES   REMARKS
RUIDOSO        NOT AVBL

$$
NMZ527>531-020100-
NORTHEAST HIGHLANDS/NORTHEAST PLAINS

CITY           SKY/WX    TMP DP  RH WIND       PRES   REMARKS
LAS VEGAS      CLOUDY    65  55  70 S7        30.32S
6HR MIN TEMP:  64; 6HR MAX TEMP:  68; 6HR PCP: TRACE;

RATON          LGT RAIN  58  56  93 E7        30.32F
6HR MIN TEMP:  57; 6HR MAX TEMP:  70; 6HR PCP:  0.41;

CLAYTON        CLOUDY    73  51  46 SE8       30.23S
6HR MIN TEMP:  71; 6HR MAX TEMP:  77;


$$
NMZ532>537-020100-
EASTCENTRAL PLAINS

CITY           SKY/WX    TMP DP  RH WIND       PRES   REMARKS
TUCUMCARI      PTSUNNY   82  46  28 SE6       30.16S
6HR MIN TEMP:  75; 6HR MAX TEMP:  83;

CANNON AFB     NOT AVBL
CLOVIS AIRPORT NOT AVBL

$$
NMZ028-029-538-020100-
SOUTHEAST PLAINS

CITY           SKY/WX    TMP DP  RH WIND       PRES   REMARKS
ROSWELL        CLOUDY    76  62  62 SW8       30.15S
6HR MIN TEMP:  73; 6HR MAX TEMP:  77;

CARLSBAD       CLOUDY    75  63  66 NW3       30.11F
6HR MIN TEMP:  72; 6HR MAX TEMP:  75; 6HR PCP:  0.01;

HOBBS          PTSUNNY   81  54  39 E9        30.14F


$$


USA.gov is the U.S. government's official web portal to all federal, state and local government web resources and services.